CDT,Max TemperatureF,Mean TemperatureF,Min TemperatureF,Max Dew PointF,MeanDew PointF,Min DewpointF,Max Humidity, Mean Humidity, Min Humidity, Max Sea Level PressureIn, Mean Sea Level PressureIn, Min Sea Level PressureIn, Max VisibilityMiles, Mean VisibilityMiles, Min VisibilityMiles, Max Wind SpeedMPH, Mean Wind SpeedMPH, Max Gust SpeedMPH,PrecipitationIn, CloudCover, Events, WindDirDegrees
2013-5-1,75,58,41,54,46,35,76,62,47,30.25,30.04,29.79,10,10,5,29,14,39,0.04,6,Rain-Thunderstorm,8
2013-5-2,43,39,35,37,33,28,92,75,57,30.48,30.41,30.28,10,6,2,28,14,38,0.82,8,Rain-Snow,351
2013-5-3,51,44,37,36,32,28,85,66,46,30.35,30.15,29.97,10,10,6,24,14,32,0.03,7,Rain,333
2013-5-4,50,44,37,43,38,34,92,86,80,30.09,29.96,29.89,10,7,2,23,14,31,0.09,8,Rain-Snow,344
2013-5-5,56,51,46,48,45,42,89,80,71,30.17,30.12,30.08,10,6,3,15,8,20,0.01,8,Rain,330
2013-5-6,70,60,50,53,50,47,96,75,53,30.14,30.10,30.03,10,8,3,12,6,16,0.00,5,,352
2013-5-7,76,60,44,57,49,43,100,69,38,30.11,30.05,29.96,10,4,0,14,3,18,0.00,1,Fog,112
2013-5-8,76,67,57,62,57,51,87,71,54,29.99,29.93,29.86,10,9,3,23,8,27,0.38,6,Rain-Thunderstorm,139
2013-5-9,75,67,58,60,57,55,93,75,57,29.96,29.89,29.84,10,10,8,15,7,20,0.01,4,Rain-Thunderstorm,277
2013-5-10,71,61,50,55,51,47,93,69,45,30.08,30.02,29.95,10,9,7,20,8,24,0.00,5,,338
2013-5-11,68,56,44,48,37,26,93,59,24,30.27,30.17,30.07,10,9,4,30,11,40,0.00,0,,334
2013-5-12,69,53,36,42,33,25,85,54,22,30.31,30.23,30.13,10,10,10,10,2,15,0.00,1,,206
2013-5-13,81,64,46,56,47,41,86,61,35,30.15,30.05,29.91,10,10,10,17,7,22,0.00,0,,148
2013-5-14,95,77,59,56,49,43,72,45,17,29.90,29.82,29.76,10,10,10,24,11,33,0.00,0,,204
2013-5-15,88,78,67,64,59,53,79,60,40,29.86,29.82,29.78,10,10,10,21,10,28,0.00,0,,187
2013-5-16,81,72,62,62,61,59,93,71,49,29.90,29.85,29.78,10,9,6,14,6,19,0.00,3,,152
2013-5-17,81,71,60,63,61,57,97,76,54,29.94,29.89,29.84,10,8,1,14,5,22,0.00,5,,139
2013-5-18,85,73,61,72,66,58,90,76,61,29.91,29.80,29.69,10,9,8,31,10,44,0.23,5,,118
2013-5-19,82,71,60,69,62,57,93,74,54,29.86,29.68,29.54,10,9,1,38,10,61,0.54,5,Rain-Thunderstorm,165
2013-5-20,84,71,58,59,55,51,90,62,34,29.74,29.67,29.60,10,10,10,17,8,25,0.00,0,,214
2013-5-21,75,68,60,52,49,46,80,59,38,29.78,29.74,29.70,10,10,10,18,9,29,0.00,0,,267
2013-5-22,72,63,54,52,49,46,83,65,47,29.97,29.84,29.75,10,10,10,17,9,25,0.00,5,,292
2013-5-23,71,61,50,54,51,47,86,70,53,30.21,30.13,29.97,10,10,10,16,7,22,0.00,4,,11
2013-5-24,76,63,49,54,50,47,93,67,41,30.29,30.21,30.10,10,10,9,25,11,29,0.00,2,,113
2013-5-25,84,74,64,64,60,53,79,63,47,30.12,30.06,29.97,10,10,10,23,10,30,0.00,2,,169
2013-5-26,85,78,70,68,66,64,79,67,55,30.01,29.93,29.84,10,10,10,21,11,29,0.00,4,,167
2013-5-27,83,73,62,71,63,59,100,81,62,29.90,29.81,29.61,10,7,0,26,13,36,2.83,7,Fog-Rain-Thunderstorm,97
2013-5-28,84,77,70,71,68,63,84,75,65,29.80,29.68,29.63,10,10,10,24,10,31,0.00,7,Thunderstorm,161
2013-5-29,83,75,66,67,65,60,84,71,58,29.76,29.69,29.57,10,10,9,32,16,41,0.01,5,Rain-Thunderstorm,154
2013-5-30,76,70,63,66,61,60,93,77,60,29.74,29.66,29.60,10,8,2,22,8,26,0.76,5,Rain-Thunderstorm,169
2013-5-31,83,72,61,68,63,55,87,65,43,29.77,29.70,29.62,10,9,1,28,6,36,1.09,5,Rain-Thunderstorm,107